TimeCDT,TemperatureF,Dew PointF,Humidity,Sea Level PressureIn,VisibilityMPH,Wind Direction,Wind SpeedMPH,Gust SpeedMPH,PrecipitationIn,Events,Conditions,WindDirDegrees,DateUTC
12:14 AM,70.7,68.0,91,30.20,10.0,SE,3.5,-,N/A,,Clear,130,2013-07-15 05:14:00
12:34 AM,72.1,67.8,86,30.20,10.0,SE,3.5,-,N/A,,Scattered Clouds,130,2013-07-15 05:34:00
12:54 AM,71.1,67.5,88,30.20,10.0,SE,3.5,-,N/A,,Mostly Cloudy,130,2013-07-15 05:54:00
1:13 AM,71.2,67.3,87,30.20,10.0,Calm,Calm,-,N/A,,Scattered Clouds,0,2013-07-15 06:13:00
1:34 AM,71.1,67.1,87,30.20,10.0,Calm,Calm,-,N/A,,Scattered Clouds,0,2013-07-15 06:34:00
1:54 AM,70.7,66.7,87,30.20,10.0,SE,3.5,-,N/A,,Clear,130,2013-07-15 06:54:00
2:14 AM,69.8,66.4,89,30.20,10.0,Calm,Calm,-,N/A,,Clear,0,2013-07-15 07:14:00
2:33 AM,70.0,66.2,88,30.20,10.0,SE,3.5,-,N/A,,Clear,130,2013-07-15 07:33:00
2:54 AM,69.1,66.2,91,30.20,10.0,Calm,Calm,-,N/A,,Clear,0,2013-07-15 07:54:00
3:13 AM,68.4,65.7,91,30.20,10.0,SE,4.6,-,N/A,,Clear,130,2013-07-15 08:13:00
3:33 AM,68.0,65.5,92,30.20,10.0,SE,3.5,-,N/A,,Clear,130,2013-07-15 08:33:00
3:54 AM,68.2,65.5,91,30.20,10.0,Calm,Calm,-,N/A,,Clear,0,2013-07-15 08:54:00
4:14 AM,68.0,65.3,91,30.20,10.0,Calm,Calm,-,N/A,,Clear,0,2013-07-15 09:14:00
4:33 AM,67.1,64.9,93,30.21,10.0,Calm,Calm,-,N/A,,Clear,0,2013-07-15 09:33:00
4:54 AM,67.1,64.8,92,30.21,10.0,Calm,Calm,-,N/A,,Clear,0,2013-07-15 09:54:00
5:13 AM,65.7,63.9,94,30.21,7.0,Calm,Calm,-,N/A,,Clear,0,2013-07-15 10:13:00
5:34 AM,65.5,63.9,94,30.21,7.0,Calm,Calm,-,N/A,,Clear,0,2013-07-15 10:34:00
5:53 AM,64.6,63.5,96,30.22,5.0,Calm,Calm,-,N/A,,Clear,0,2013-07-15 10:53:00
6:14 AM,64.6,63.7,97,30.22,5.0,Calm,Calm,-,N/A,,Clear,0,2013-07-15 11:14:00
6:33 AM,65.5,64.4,96,30.22,5.0,Calm,Calm,-,N/A,,Clear,0,2013-07-15 11:33:00
6:54 AM,66.9,64.9,93,30.22,7.0,Calm,Calm,-,N/A,,Clear,0,2013-07-15 11:54:00
6:58 AM,67.5,65.3,93,30.22,7.0,Calm,Calm,-,N/A,,Clear,0,2013-07-15 11:58:00
7:34 AM,70.2,66.2,87,30.23,10.0,Calm,Calm,-,N/A,,Clear,0,2013-07-15 12:34:00
7:54 AM,71.2,67.1,87,30.24,10.0,Calm,Calm,-,N/A,,Clear,0,2013-07-15 12:54:00
8:14 AM,72.5,67.3,84,30.24,10.0,South,3.5,-,N/A,,Clear,180,2013-07-15 13:14:00
8:33 AM,73.4,67.3,81,30.24,10.0,South,4.6,-,N/A,,Clear,180,2013-07-15 13:33:00
8:54 AM,74.7,67.8,79,30.24,10.0,South,3.5,-,N/A,,Clear,180,2013-07-15 13:54:00
9:14 AM,75.9,67.8,76,30.24,10.0,South,3.5,-,N/A,,Clear,190,2013-07-15 14:14:00
9:34 AM,77.4,68.5,74,30.25,10.0,SW,5.8,-,N/A,,Clear,220,2013-07-15 14:34:00
9:53 AM,77.9,67.8,71,30.25,10.0,South,5.8,-,N/A,,Clear,180,2013-07-15 14:53:00
10:14 AM,78.4,68.4,71,30.25,10.0,Calm,Calm,-,N/A,,Clear,0,2013-07-15 15:14:00
10:34 AM,79.7,69.1,70,30.25,10.0,SSW,3.5,-,N/A,,Clear,210,2013-07-15 15:34:00
10:53 AM,80.6,69.3,68,30.25,10.0,South,3.5,-,N/A,,Clear,190,2013-07-15 15:53:00
11:14 AM,81.0,68.4,65,30.25,10.0,SSW,4.6,-,N/A,,Clear,210,2013-07-15 16:14:00
11:34 AM,81.5,68.4,64,30.24,10.0,SSW,3.5,-,N/A,,Clear,210,2013-07-15 16:34:00
11:54 AM,81.9,68.2,63,30.24,10.0,South,4.6,-,N/A,,Clear,190,2013-07-15 16:54:00
12:13 PM,82.6,68.9,63,30.24,10.0,SE,5.8,-,N/A,,Clear,140,2013-07-15 17:13:00
12:33 PM,83.7,67.8,59,30.24,10.0,South,6.9,-,N/A,,Clear,170,2013-07-15 17:33:00
12:53 PM,83.1,66.9,58,30.23,10.0,South,3.5,-,N/A,,Scattered Clouds,190,2013-07-15 17:53:00
1:14 PM,84.6,67.1,56,30.23,10.0,SSE,5.8,-,N/A,,Scattered Clouds,150,2013-07-15 18:14:00
1:34 PM,83.7,67.3,58,30.23,10.0,SE,5.8,-,N/A,,Scattered Clouds,140,2013-07-15 18:34:00
1:54 PM,84.2,67.3,57,30.23,10.0,South,8.1,-,N/A,,Scattered Clouds,170,2013-07-15 18:54:00
2:14 PM,84.6,68.2,58,30.22,10.0,SSE,8.1,-,N/A,,Scattered Clouds,160,2013-07-15 19:14:00
2:34 PM,84.7,67.8,57,30.22,10.0,South,8.1,-,N/A,,Scattered Clouds,180,2013-07-15 19:34:00
2:54 PM,84.9,67.3,55,30.22,10.0,SE,9.2,-,N/A,,Scattered Clouds,140,2013-07-15 19:54:00
3:13 PM,85.5,67.3,54,30.22,10.0,SSE,5.8,-,N/A,,Scattered Clouds,160,2013-07-15 20:13:00
3:34 PM,85.3,67.6,55,30.22,10.0,SSE,8.1,-,N/A,,Scattered Clouds,150,2013-07-15 20:34:00
3:53 PM,84.7,66.6,54,30.22,10.0,SSE,5.8,-,N/A,,Scattered Clouds,160,2013-07-15 20:53:00
4:14 PM,84.9,66.9,55,30.21,10.0,South,5.8,-,N/A,,Scattered Clouds,170,2013-07-15 21:14:00
4:31 PM,85.1,66.2,53,30.21,10.0,South,6.9,-,N/A,,Scattered Clouds,170,2013-07-15 21:31:00
4:54 PM,84.2,66.4,55,30.20,10.0,SSE,5.8,-,N/A,,Scattered Clouds,150,2013-07-15 21:54:00
5:13 PM,84.9,67.1,55,30.20,10.0,SE,8.1,-,N/A,,Scattered Clouds,140,2013-07-15 22:13:00
5:34 PM,85.1,67.6,56,30.19,10.0,South,6.9,-,N/A,,Scattered Clouds,170,2013-07-15 22:34:00
5:54 PM,85.1,68.4,57,30.19,10.0,SSE,5.8,-,N/A,,Scattered Clouds,150,2013-07-15 22:54:00
6:14 PM,84.9,68.7,58,30.19,10.0,SSE,6.9,-,N/A,,Clear,160,2013-07-15 23:14:00
6:33 PM,84.6,68.0,57,30.18,10.0,SSE,5.8,-,N/A,,Clear,150,2013-07-15 23:33:00
6:54 PM,84.4,68.5,59,30.18,10.0,SSE,4.6,-,N/A,,Clear,150,2013-07-15 23:54:00
7:14 PM,84.2,68.0,58,30.18,10.0,SSE,5.8,-,N/A,,Clear,150,2013-07-16 00:14:00
7:33 PM,83.1,69.8,64,30.18,10.0,SE,4.6,-,N/A,,Clear,130,2013-07-16 00:33:00
7:54 PM,82.2,70.7,68,30.17,10.0,ESE,3.5,-,N/A,,Clear,120,2013-07-16 00:54:00
8:14 PM,80.6,70.7,72,30.17,10.0,ESE,3.5,-,N/A,,Clear,120,2013-07-16 01:14:00
8:34 PM,79.0,70.7,76,30.17,10.0,ESE,4.6,-,N/A,,Clear,120,2013-07-16 01:34:00
8:54 PM,77.9,70.7,78,30.17,10.0,SE,4.6,-,N/A,,Clear,130,2013-07-16 01:54:00
9:13 PM,77.0,70.7,81,30.18,10.0,ESE,5.8,-,N/A,,Clear,110,2013-07-16 02:13:00
9:33 PM,76.6,70.3,81,30.18,10.0,ESE,3.5,-,N/A,,Clear,120,2013-07-16 02:33:00
9:54 PM,76.1,70.3,82,30.19,10.0,ESE,4.6,-,N/A,,Clear,120,2013-07-16 02:54:00
10:13 PM,75.2,70.5,85,30.19,10.0,ESE,3.5,-,N/A,,Scattered Clouds,120,2013-07-16 03:13:00
10:34 PM,74.5,70.7,88,30.18,10.0,ESE,3.5,-,N/A,,Clear,120,2013-07-16 03:34:00
10:53 PM,74.3,70.7,88,30.18,10.0,ESE,4.6,-,N/A,,Clear,110,2013-07-16 03:53:00
11:14 PM,74.3,70.7,88,30.18,10.0,ESE,3.5,-,N/A,,Clear,120,2013-07-16 04:14:00
11:33 PM,73.8,70.5,90,30.19,7.0,ESE,4.6,-,N/A,,Clear,120,2013-07-16 04:33:00
11:54 PM,73.9,70.7,90,30.19,10.0,ESE,3.5,-,N/A,,Scattered Clouds,120,2013-07-16 04:54:00